[[{"header":{"parameterUnit":"m.s-1","parameterCategory":1,"la1":30.2991,"la2":30.254,"lo1":-89.0895,"lo2":-89.0444,"dy":0.0017,"dx":0.0017,"nx":28,"ny":28,"refTime":"2024-08-06T09:00:00:Z","depth":0,"parameterNumber":2,"parameterNumberName":"U-component_of_WINDS"},"data":[0,0,0,0,0,0,0,0,0,0,0,0,0,0,0,0,0,0,0,0,0,0,0,0,0,0,0,0,0,0,0,0,0,0,0,0,0,0,0,0,0,0,0,0,0,0,0,0,0,0,0,0,0,0,0,0,0,0,2.8148,2.8149,0,2.8193,2.8194,2.8195,2.816,2.8158,2.8157,2.8155,2.8207,2.821,2.8212,0,0,0,0,0,0,0,0,0,0,0,0,0,2.8039,2.8041,2.8148,2.8149,2.8149,2.8193,2.8194,2.8195,2.816,2.8158,2.8156,2.8155,2.8206,2.8209,2.8213,0,0,0,0,0,0,0,0,0,0,0,0,0,2.8086,2.8042,2.8148,2.8137,2.8137,2.8193,2.8194,2.8195,2.816,2.8158,2.8156,2.8154,2.8205,2.8209,2.8213,2.8284,0,0,2.8226,2.8228,0,0,0,0,0,0,0,0,2.8083,2.809,2.8138,2.8138,2.8137,2.8168,2.8174,2.8225,2.8161,2.8152,2.8155,2.8153,2.8196,2.8201,2.8215,2.8287,2.8289,2.8226,2.8229,2.8231,2.8232,0,0,0,0,0,0,0,2.808,2.8088,2.8166,2.8139,2.8139,2.8132,2.8137,2.8184,2.8186,2.8152,2.815,2.8155,2.8196,2.8211,2.8216,2.829,2.8226,2.823,2.8232,2.8234,2.8429,2.8432,0,0,0,0,0,0,2.8077,2.8085,2.8165,2.8168,2.8104,2.8136,2.8141,2.8161,2.8186,2.8187,2.8157,2.8154,2.8205,2.8211,2.8217,2.8307,2.823,2.8234,2.8237,2.8426,2.843,2.8432,0,0,0,0,0,0,2.8074,2.8084,2.8163,2.8126,2.8135,2.814,2.8163,2.8163,2.8178,2.8189,2.819,2.8172,2.8203,2.8211,2.8269,2.8308,2.8236,2.824,2.8423,2.8427,2.8431,2.8484,0,0,0,0,0,0,2.8071,2.8083,2.8109,2.8126,2.8137,2.8212,2.8166,2.8166,2.8185,2.818,2.8203,2.8205,2.8202,2.8263,2.8273,2.8313,2.8243,2.842,2.8425,2.843,2.8479,2.8489,2.8498,0,0,0,0,0,2.8068,2.8122,2.811,2.812,2.8169,2.8214,2.822,2.8214,2.8188,2.8215,2.8223,2.8204,2.8301,2.8269,2.828,2.8322,2.8417,2.8424,2.8429,2.8475,2.8487,2.8498,0,0,0,0,0,0,2.8109,2.8124,2.8111,2.8172,2.8192,2.8208,2.8242,2.8227,2.8256,2.8251,2.8244,2.825,2.8312,2.8322,2.8285,2.8395,2.8356,2.8364,2.8386,2.8398,2.8408,2.8406,2.8247,0,0,0,0,0,2.8125,2.8159,2.817,2.8223,2.8234,2.8236,2.8255,2.8249,2.827,2.8279,2.8291,2.8314,2.835,2.8374,2.8408,2.8479,2.8487,2.8514,2.8523,2.8531,2.854,2.8584,2.8598,2.8452,2.8452,2.8452,0,0,2.8159,2.8171,2.8193,2.8232,2.8246,2.8285,2.8243,2.8284,2.8313,2.8286,2.8342,2.8352,2.8377,2.8443,2.8473,2.8454,2.8582,2.8539,2.8545,2.855,2.8592,2.8606,2.8618,2.8456,2.8456,2.8455,0,0,2.8241,2.8252,2.8299,2.8315,2.8338,2.834,2.8351,2.837,2.8376,2.8431,2.8413,2.8449,2.8509,2.853,2.8549,2.8642,2.8628,2.8653,2.8706,2.8749,2.876,2.8771,2.8809,2.8823,2.8661,2.8661,2.8661,0,2.8281,2.8336,2.8326,2.8369,2.8389,2.8365,2.8416,2.8432,2.8465,2.8481,2.8458,2.8538,2.8553,2.8626,2.865,2.8663,2.868,2.8652,2.8759,2.8769,2.8779,2.8816,2.883,2.8665,2.8664,2.8664,2.8664,0,2.8387,2.8425,2.8461,2.8494,2.8517,2.8564,2.8564,2.859,2.8582,2.8587,2.8647,2.8665,2.8704,2.872,2.8712,2.8794,2.8782,2.8759,2.8721,2.8796,2.8831,2.8845,2.8669,2.8668,2.8667,2.8666,0,0,2.8497,2.8525,2.8539,2.8555,2.858,2.8611,2.8658,2.8695,2.872,2.8744,2.8787,2.8841,2.8821,2.8842,2.8837,2.8875,2.8955,2.8848,2.8849,2.8872,2.9052,2.9072,2.9088,2.8944,2.8946,2.8948,2.9052,0,2.8584,2.8665,2.8659,2.8737,2.8775,2.8754,2.8796,2.8818,2.8825,2.886,2.8868,2.8909,2.8876,2.889,2.8926,2.8937,2.8992,2.8929,2.8989,2.8991,2.8987,2.9105,2.9126,2.9222,2.9064,2.9067,2.9068,0,2.8696,2.8725,2.8807,2.883,2.8846,2.8883,2.892,2.8952,2.8978,2.8981,2.9006,2.8996,2.9048,2.9005,2.908,2.9038,2.9062,2.9072,2.9075,2.9084,2.9037,2.9122,2.9252,2.9269,2.9088,2.9087,2.9085,0,2.8775,2.8833,2.8891,2.8905,2.8932,2.896,2.8973,2.8996,2.9021,2.9053,2.907,2.9107,2.9129,2.9161,2.9163,2.9131,2.9241,2.9197,2.9249,2.9249,2.9275,2.9274,2.9416,2.9283,2.9283,2.9283,2.9282,0,2.8875,2.8927,2.8928,2.8964,2.9023,2.9017,2.9077,2.9087,2.9108,2.9149,2.9132,2.9171,2.9169,2.921,2.9212,2.9277,2.9286,2.9293,2.9294,2.9297,2.9297,2.9315,2.9311,2.9287,2.9286,2.9285,2.9284,0,2.8974,2.8975,2.9038,2.9059,2.9065,2.9109,2.9128,2.9164,2.917,2.9222,2.9234,2.9244,2.9291,2.9296,2.935,2.9352,2.9432,2.9423,2.9424,2.9424,2.9477,2.9474,2.9639,2.9663,2.951,2.9512,2.9513,0,2.904,2.908,2.9105,2.9131,2.9145,2.9186,2.9211,2.9207,2.9235,2.9269,2.9303,2.9348,2.9385,2.9462,2.9476,2.952,2.9515,2.957,2.9522,2.9525,2.9522,2.9522,2.9528,2.9581,2.9582,2.9584,2.9585,0,2.9159,2.9159,2.9194,2.9232,2.9262,2.9292,2.9319,2.9342,2.9342,2.9374,2.9422,2.945,2.9507,2.9555,2.9598,2.9614,2.9603,2.9599,2.9615,2.9621,2.9622,2.9627,2.9454,2.9597,2.9595,2.9594,2.9594,2.9593,2.9248,2.9284,2.9308,2.935,2.9371,2.9398,2.9434,2.9445,2.9484,2.9529,2.9525,2.9579,2.9609,2.9665,2.9685,2.973,2.9712,2.9733,2.9739,2.9746,2.9754,2.961,2.9738,2.9737,2.9737,2.9737,2.9736,0,2.937,2.9385,2.9423,2.9463,2.9497,2.9479,2.951,2.9541,2.9589,2.9615,2.9652,2.971,2.9757,2.9775,2.9822,2.9855,2.9851,2.9868,2.9868,2.9873,2.9764,2.9749,2.9871,2.9871,2.9871,2.9871,2.9871,2.9871,2.9439,2.9501,2.9504,2.9578,2.9593,2.9645,2.9665,2.9692,2.9714,2.9779,2.9817,2.9828,2.9853,2.9902,2.9946,2.9951,2.9971,2.9992,2.9995,2.9894,2.988,2.9867,2.9853,2.9995,2.9995,3.0101,3.0101,3.0102]},{"header":{"parameterUnit":"m.s-1","parameterCategory":1,"la1":30.2991,"la2":30.254,"lo1":-89.0895,"lo2":-89.0444,"dy":0.0017,"dx":0.0017,"nx":28,"ny":28,"refTime":"2024-08-06T09:00:00:Z","depth":0,"parameterNumber":3,"parameterNumberName":"V-component_of_WINDS"},"data":[0,0,0,0,0,0,0,0,0,0,0,0,0,0,0,0,0,0,0,0,0,0,0,0,0,0,0,0,0,0,0,0,0,0,0,0,0,0,0,0,0,0,0,0,0,0,0,0,0,0,0,0,0,0,0,0,0,0,-0.3381,-0.3379,0,-0.32,-0.3198,-0.3196,-0.3227,-0.323,-0.3233,-0.3236,-0.3043,-0.3036,-0.3027,0,0,0,0,0,0,0,0,0,0,0,0,0,-0.3748,-0.3741,-0.3381,-0.3379,-0.3377,-0.32,-0.3198,-0.3195,-0.3226,-0.323,-0.3234,-0.3238,-0.3046,-0.3036,-0.3027,0,0,0,0,0,0,0,0,0,0,0,0,0,-0.358,-0.3739,-0.3382,-0.3371,-0.3368,-0.3201,-0.3198,-0.3195,-0.3225,-0.323,-0.3235,-0.324,-0.3049,-0.3037,-0.3025,-0.2855,0,0,-0.2988,-0.2983,0,0,0,0,0,0,0,0,-0.3589,-0.3566,-0.3375,-0.3372,-0.3368,-0.3241,-0.3257,-0.308,-0.3224,-0.3279,-0.3236,-0.3242,-0.3105,-0.3088,-0.3044,-0.2846,-0.2837,-0.2987,-0.298,-0.2975,-0.2971,0,0,0,0,0,0,0,-0.3601,-0.3574,-0.3309,-0.3372,-0.3368,-0.3374,-0.3355,-0.3223,-0.3167,-0.3275,-0.3277,-0.3255,-0.3104,-0.3055,-0.3039,-0.2835,-0.2988,-0.2977,-0.2969,-0.2964,-0.2488,-0.2483,0,0,0,0,0,0,-0.3617,-0.3584,-0.3315,-0.3304,-0.3493,-0.3363,-0.3342,-0.3277,-0.3169,-0.3157,-0.3252,-0.3258,-0.3074,-0.3053,-0.3033,-0.2826,-0.2975,-0.2963,-0.2956,-0.2494,-0.2487,-0.2481,0,0,0,0,0,0,-0.3625,-0.3593,-0.3322,-0.3444,-0.341,-0.3352,-0.3278,-0.3271,-0.3222,-0.3151,-0.3141,-0.3213,-0.3077,-0.305,-0.2899,-0.282,-0.2958,-0.2947,-0.25,-0.2492,-0.2484,-0.2412,0,0,0,0,0,0,-0.3635,-0.3595,-0.3531,-0.3443,-0.3404,-0.3193,-0.3273,-0.3264,-0.3202,-0.3208,-0.3112,-0.31,-0.3078,-0.2917,-0.2887,-0.2806,-0.2937,-0.2507,-0.2496,-0.2487,-0.2421,-0.2402,-0.2386,0,0,0,0,0,-0.3648,-0.3516,-0.3527,-0.3495,-0.3323,-0.3189,-0.3166,-0.3146,-0.3196,-0.313,-0.3084,-0.3103,-0.2834,-0.2902,-0.2868,-0.2782,-0.2512,-0.2499,-0.2488,-0.2429,-0.2406,-0.2386,0,0,0,0,0,0,-0.3593,-0.3504,-0.3516,-0.3352,-0.3278,-0.3195,-0.3111,-0.3122,-0.3031,-0.304,-0.3016,-0.2994,-0.2842,-0.2797,-0.2874,-0.2611,-0.2679,-0.266,-0.2646,-0.2624,-0.2607,-0.262,-0.2927,0,0,0,0,0,-0.3562,-0.3463,-0.339,-0.3252,-0.3215,-0.3169,-0.311,-0.3101,-0.3023,-0.2991,-0.2934,-0.2856,-0.2754,-0.2686,-0.2588,-0.2415,-0.2394,-0.2339,-0.2322,-0.2308,-0.2291,-0.2196,-0.2171,-0.2442,-0.2442,-0.2442,0,0,-0.3496,-0.3436,-0.3374,-0.3239,-0.3181,-0.3078,-0.3142,-0.3029,-0.2952,-0.2973,-0.2828,-0.2784,-0.2695,-0.2533,-0.2458,-0.249,-0.2212,-0.2292,-0.2282,-0.2272,-0.2181,-0.2156,-0.2133,-0.2434,-0.2435,-0.2436,0,0,-0.3324,-0.3268,-0.3148,-0.3089,-0.3002,-0.2972,-0.2944,-0.2859,-0.2831,-0.2686,-0.27,-0.2607,-0.2431,-0.2367,-0.2312,-0.2118,-0.2132,-0.2086,-0.1995,-0.1903,-0.1882,-0.1863,-0.1793,-0.1769,-0.207,-0.207,-0.2069,0,-0.3252,-0.3099,-0.3083,-0.297,-0.291,-0.2928,-0.2805,-0.2748,-0.2631,-0.2589,-0.2627,-0.2409,-0.2349,-0.2173,-0.2126,-0.2081,-0.2046,-0.2096,-0.1886,-0.1867,-0.1849,-0.1783,-0.1756,-0.2065,-0.2065,-0.2066,-0.2066,0,-0.3015,-0.2909,-0.2822,-0.2713,-0.2643,-0.2525,-0.249,-0.2421,-0.2419,-0.2385,-0.2238,-0.2168,-0.2057,-0.2015,-0.201,-0.1837,-0.186,-0.1893,-0.196,-0.1819,-0.1756,-0.173,-0.2058,-0.2059,-0.2061,-0.2062,0,0,-0.28,-0.2687,-0.2655,-0.2606,-0.2512,-0.2428,-0.2311,-0.2205,-0.2146,-0.2066,-0.1966,-0.1819,-0.1849,-0.1786,-0.1774,-0.1694,-0.1545,-0.1736,-0.1734,-0.1703,-0.1351,-0.1326,-0.1297,-0.1555,-0.155,-0.1546,-0.1358,0,-0.2619,-0.2415,-0.2399,-0.2214,-0.2115,-0.2132,-0.203,-0.196,-0.1926,-0.1836,-0.1797,-0.1693,-0.1741,-0.1703,-0.1625,-0.158,-0.1474,-0.1593,-0.146,-0.1456,-0.1481,-0.1264,-0.1238,-0.1064,-0.1333,-0.1329,-0.1326,0,-0.2379,-0.2295,-0.2102,-0.2023,-0.1981,-0.189,-0.1792,-0.1706,-0.1627,-0.1608,-0.154,-0.1539,-0.1418,-0.1492,-0.1323,-0.1405,-0.135,-0.132,-0.1312,-0.1298,-0.1382,-0.1244,-0.1008,-0.0982,-0.1287,-0.129,-0.1293,0,-0.2242,-0.208,-0.1944,-0.1901,-0.1806,-0.1742,-0.1699,-0.1625,-0.1563,-0.1477,-0.1436,-0.1336,-0.1281,-0.1203,-0.1175,-0.1232,-0.1008,-0.1079,-0.0987,-0.0988,-0.0938,-0.0941,-0.069,-0.0904,-0.0904,-0.0905,-0.0905,0,-0.204,-0.1921,-0.1881,-0.1797,-0.1664,-0.1646,-0.1514,-0.1474,-0.1409,-0.1316,-0.1324,-0.1236,-0.1206,-0.1113,-0.109,-0.0954,-0.0929,-0.0909,-0.0905,-0.0908,-0.0911,-0.0871,-0.0882,-0.0898,-0.0899,-0.0901,-0.0902,0,-0.1863,-0.1832,-0.1685,-0.1608,-0.1586,-0.1491,-0.1424,-0.1343,-0.1312,-0.1194,-0.1166,-0.1115,-0.1007,-0.0972,-0.084,-0.0825,-0.0666,-0.0672,-0.0693,-0.0692,-0.0602,-0.0611,-0.0315,-0.0275,-0.0517,-0.0514,-0.0512,0,-0.1736,-0.1645,-0.156,-0.15,-0.1456,-0.1358,-0.1296,-0.1275,-0.1209,-0.1114,-0.1043,-0.0937,-0.085,-0.0675,-0.0625,-0.0525,-0.0528,-0.0431,-0.0512,-0.0519,-0.0526,-0.0532,-0.0522,-0.0416,-0.0413,-0.0411,-0.0409,0,-0.1514,-0.1504,-0.1415,-0.1321,-0.1247,-0.1171,-0.1097,-0.1047,-0.1015,-0.0941,-0.0832,-0.0765,-0.0632,-0.0525,-0.0423,-0.0377,-0.0386,-0.0385,-0.0358,-0.036,-0.0376,-0.0366,-0.0651,-0.0391,-0.0393,-0.0394,-0.0395,-0.0396,-0.1357,-0.1278,-0.1207,-0.1107,-0.1051,-0.0983,-0.0903,-0.0863,-0.0772,-0.0664,-0.0657,-0.0538,-0.0463,-0.0327,-0.0276,-0.0182,-0.0209,-0.0171,-0.0161,-0.0151,-0.0144,-0.0392,-0.0163,-0.0164,-0.0164,-0.0165,-0.0165,0,-0.1135,-0.1091,-0.1,-0.0899,-0.0821,-0.0842,-0.0762,-0.0695,-0.0591,-0.0521,-0.0437,-0.0311,-0.0208,-0.0152,-0.0049,0.0015,0.0013,0.0042,0.0038,0.0049,-0.0125,-0.0159,0.0042,0.0042,0.0042,0.0041,0.0041,0.0041,-0.1011,-0.0878,-0.0859,-0.0698,-0.0654,-0.054,-0.0493,-0.043,-0.0374,-0.0235,-0.0151,-0.0116,-0.0051,0.0056,0.015,0.0164,0.0202,0.0234,0.0245,0.0082,0.0061,0.0041,0.001,0.0242,0.0242,0.0412,0.0413,0.0414]}]]